Location: Beaurevoir
(49.9971°N, 3.3085°E)
Time: 10:47:44
(UTC+00:00)

Cosmos 1763 Rocket - Pass Details

Date: 23 May 2024
Orbit: 730 x 778 km, 74.0° (Epoch: 14 June)

Event Time Altitude Azimuth Distance (km) Brightness Sun altitude
Rises 00:48:51 0° 331° (NNW) 3,272 7.5 -17.9°
Reaches altitude 10° 00:51:19 10° 326° (NW) 2,340 6.5 -17.8°
Maximum altitude 00:56:21 45° 255° (WSW) 1,057 4.0 -17.5°
Enters shadow 00:58:22 31° 205° (SSW) 1,346 4.2 -17.4°
